Mountain Home, AR

12:09 PM CST on November 20, 2019 (GMT -0600)
Baxter County Regional

Weather History for KBPK - October, 2019

Change the Weather History Date:

Sunday, October 20, 2019

  Actual Average (KFLP) Record (KFLP)
Temperature  
Mean Temperature 64 °F -  
Max Temperature 75 °F 69 °F 87 °F (2003)
Min Temperature 54 °F 46 °F 30 °F (2006)
Degree Days  
Heating Degree Days 2    
Growing Degree Days 14 (Base 50)    
Moisture  
Dew Point 57 °F    
Average Humidity 82    
Maximum Humidity 100    
Minimum Humidity 57    
Precipitation  
Precipitation 0.00 in - - ()
Sea Level Pressure  
Sea Level Pressure 29.79 in    
Wind  
Wind Speed 4 mph (SE)    
Max Wind Speed 13 mph    
Max Gust Speed -    
Visibility 10 miles    
Events      
Averages and records for this station are not official NWS values.
T = Trace of Precipitation, MM = Missing Value Source: NWS Daily Summary

Daily Weather History Graph

Daily Weather History Graph

Search for Another Location

Airport or City:

Astronomy

Oct. 20, 2019 Rise Set
Actual Time 7:21 AM CDT 6:27 PM CDT
Civil Twilight 6:55 AM CDT 6:53 PM CDT
Nautical Twilight 6:25 AM CDT 7:23 PM CDT
Astronomical Twilight 5:55 AM CDT 7:53 PM CDT
Moon 11:43 PM CDT 1:42 PM CDT
Length of Visible Light 11h 58m
Length of Day
11h 06m
Waning Gibbous, 59% of the Moon is Illuminated
Oct 20
Waning Gibbous
Oct 21
Last Quarter
Oct 27
New
Nov 4
First Quarter
Nov 12
Full

Hourly Weather History & Observations

Time (CDT) Temp. Dew Point Humidity Pressure Visibility Wind Dir Wind Speed Gust Speed Precip Events Conditions
12:53 AM 59.0 °F 55.9 °F 90% 29.81 in 10.0 mi Calm Calm - N/A   Overcast
1:53 AM 59.0 °F 55.9 °F 90% 29.82 in 10.0 mi Calm Calm - N/A   Overcast
2:53 AM 57.0 °F 55.9 °F 96% 29.81 in 10.0 mi Calm Calm - N/A   Overcast
3:53 AM 55.9 °F 55.0 °F 97% 29.81 in 10.0 mi Calm Calm - N/A   Partly Cloudy
4:53 AM 55.0 °F 54.0 °F 96% 29.81 in 10.0 mi Calm Calm - N/A   Clear
5:53 AM 54.0 °F 54.0 °F 100% 29.82 in 10.0 mi East 5.8 mph - N/A   Clear
7:53 AM 55.0 °F 55.0 °F 100% 29.85 in 10.0 mi Calm Calm - N/A   Overcast
8:53 AM 55.9 °F 55.0 °F 97% 29.88 in 10.0 mi East 3.5 mph - N/A   Overcast
9:11 AM 55.9 °F 55.9 °F 100% 29.88 in 10.0 mi ESE 5.8 mph - N/A   Overcast
9:53 AM 59.0 °F 57.0 °F 93% 29.87 in 10.0 mi SE 8.1 mph - N/A   Mostly Cloudy
10:53 AM 62.1 °F 55.0 °F 78% 29.87 in 10.0 mi SSE 8.1 mph - N/A   Overcast
11:17 AM 62.1 °F 55.0 °F 78% 29.88 in 10.0 mi SE 6.9 mph - N/A   Overcast
11:53 AM 64.0 °F 55.0 °F 73% 29.85 in 10.0 mi SSE 5.8 mph - N/A   Mostly Cloudy
12:06 PM 64.9 °F 55.0 °F 70% 29.86 in 10.0 mi Variable 6.9 mph - N/A   Scattered Clouds
12:53 PM 68.0 °F 55.9 °F 65% 29.82 in 10.0 mi SE 6.9 mph - N/A   Mostly Cloudy
1:53 PM 71.1 °F 57.0 °F 61% 29.79 in 10.0 mi SSE 4.6 mph - N/A   Partly Cloudy
2:53 PM 73.0 °F 57.9 °F 59% 29.77 in 10.0 mi South 9.2 mph - N/A   Partly Cloudy
3:53 PM 73.9 °F 57.9 °F 57% 29.75 in 10.0 mi South 12.7 mph - N/A   Clear
5:53 PM 71.1 °F 57.9 °F 63% 29.72 in 10.0 mi South 9.2 mph - N/A   Clear
6:53 PM 68.0 °F 57.9 °F 70% 29.73 in 10.0 mi SSE 6.9 mph - N/A   Clear
8:53 PM 64.9 °F 57.9 °F 78% 29.72 in 10.0 mi ESE 8.1 mph - N/A   Clear
9:53 PM 64.0 °F 59.0 °F 84% 29.70 in 10.0 mi SSE 4.6 mph - N/A   Clear
10:14 PM 64.9 °F 59.0 °F 81% 29.71 in 10.0 mi SSE 6.9 mph - N/A   Mostly Cloudy
10:21 PM 64.9 °F 60.1 °F 84% 29.70 in 10.0 mi SSE 6.9 mph - N/A   Scattered Clouds
10:53 PM 64.9 °F 62.1 °F 90% 29.65 in 10.0 mi SSE 6.9 mph - N/A   Clear
11:53 PM 64.9 °F 63.0 °F 93% 29.59 in 10.0 mi SSE 9.2 mph - N/A   Clear